FW5274 Weather Reports


Display with metric or nautical units.
time (UTC)temp
F
wind
direction
speed
MPH
gust
MPH
rain 1hr
in
rain 24hr
in
rain mn
in
humidity
%
barometer
mb
20260508140032 48 161 3.0 4.0 0.00 0.00 0.00 66 1020.2
20260508134535 47 151 3.0 7.0 0.00 0.00 0.00 66 1019.9
20260508131544 44 186 4.0 6.0 0.00 0.00 0.00 63 1019.8
20260508130038 44 205 4.0 5.0 0.00 0.00 0.00 63 1019.6
20260508124531 44 211 3.0 4.0 0.00 0.00 0.00 63 1019.5
20260508123035 43 222 3.0 4.0 0.00 0.00 0.00 63 1019.5
20260508121544 44 228 2.0 4.0 0.00 0.00 0.00 62 1019.5
20260508120034 44 226 2.0 3.0 0.00 0.00 0.00 61 1019.6
20260508111537 45 212 3.0 5.0 0.00 0.00 0.00 58 1019.4
20260508104533 45 237 4.0 6.0 0.00 0.00 0.00 58 1019.4
20260508100035 46 247 2.0 3.0 0.00 0.00 0.00 53 1019.4
20260508091530 45 185 4.0 5.0 0.00 0.00 0.00 54 1019.2
20260508090108 45 221 4.0 5.0 0.00 0.00 0.00 52 1019.2
20260508083030 46 208 4.0 5.0 0.00 0.00 0.00 49 1019.2
20260508081535 46 196 4.0 7.0 0.00 0.00 0.00 48 1019.2
20260508080037 46 204 4.0 5.0 0.00 0.00 0.00 47 1019.3
20260508074532 47 228 4.0 5.0 0.00 0.00 0.00 46 1019.2
20260508073033 46 159 3.0 6.0 0.00 0.00 0.00 45 1019.1
20260508071537 46 177 2.0 5.0 0.00 0.00 0.00 45 1019.1
20260508070108 46 180 3.0 5.0 0.00 0.00 0.00 44 1019.1
20260508064533 47 194 4.0 5.0 0.00 0.00 0.00 43 1019.2
20260508063031 48 165 0.0 3.0 0.00 0.00 0.00 43 1019.2
20260508061536 48 156 2.0 5.0 0.00 0.00 0.00 43 1019.2
20260508060039 48 181 3.0 5.0 0.00 0.00 0.00 41 1019.1
20260508053034 50 177 2.0 4.0 0.00 0.00 0.00 39 1019.2
20260508051530 51 143 3.0 5.0 0.00 0.00 0.00 38 1019.1
20260508050030 52 145 4.0 7.0 0.00 0.00 0.00 37 1019.0
20260508044532 53 146 4.0 7.0 0.00 0.00 0.00 36 1019.0
20260508041535 55 135 4.0 8.0 0.00 0.00 0.00 35 1018.7
20260508034535 56 128 5.0 8.0 0.00 0.00 0.00 35 1018.3
20260508033035 57 121 3.0 7.0 0.00 0.00 0.00 34 1018.3
20260508031537 57 107 3.0 7.0 0.00 0.00 0.00 34 1018.3
20260508023030 62 88 5.0 9.0 0.00 0.00 0.00 29 1018.0
20260508021534 64 79 5.0 9.0 0.00 0.00 0.00 28 1018.0
20260508020033 65 68 5.0 10.0 0.00 0.00 0.00 28 1018.0
20260508014531 64 66 4.0 10.0 0.00 0.00 0.00 29 1018.1
20260508013036 71 22 6.0 11.0 0.00 0.00 0.00 25 1018.1
20260508010108 72 22 6.0 12.0 0.00 0.00 0.00 24 1018.1
20260508004533 73 17 6.0 14.0 0.00 0.00 0.00 23 1018.1
20260508003034 73 353 6.0 14.0 0.00 0.00 0.00 23 1018.1
20260508000031 73 22 9.0 16.0 0.00 0.00 0.00 24 1017.8
20260507234537 73 7 9.0 18.0 0.00 0.00 0.00 24 1017.9
20260507233031 74 28 6.0 16.0 0.00 0.00 0.00 25 1018.0
20260507231531 73 37 5.0 12.0 0.00 0.00 0.00 27 1018.1
20260507224607 73 42 5.0 13.0 0.00 0.00 0.00 28 1018.5
20260507223030 73 48 5.0 10.0 0.00 0.00 0.00 30 1018.6
20260507221535 72 62 6.0 11.0 0.00 0.00 0.00 31 1018.8
20260507220034 71 85 7.0 15.0 0.00 0.00 0.00 32 1019.0
20260507214534 71 88 7.0 18.0 0.00 0.00 0.00 32 1019.0
20260507213042 72 70 6.0 18.0 0.00 0.00 0.00 32 1019.1
20260507213037 72 50 5.0 11.0 0.00 0.00 0.00 32 1019.2
20260507210032 71 34 6.0 13.0 0.00 0.00 0.00 33 1019.3
20260507201537 70 69 5.0 10.0 0.00 0.00 0.00 36 1020.0
20260507200106 70 97 5.0 13.0 0.00 0.00 0.00 37 1020.0
20260507194533 70 84 7.0 11.0 0.00 0.00 0.00 37 1020.0
20260507193107 70 70 5.0 11.0 0.00 0.00 0.00 37 1020.1
20260507191534 69 47 4.0 9.0 0.00 0.00 0.00 40 1020.3
20260507190035 69 55 5.0 9.0 0.00 0.00 0.00 42 1020.4
20260507184541 67 85 5.0 12.0 0.00 0.00 0.00 45 1020.5
20260507184535 68 88 5.0 13.0 0.00 0.00 0.00 46 1020.6
20260507181533 66 73 5.0 11.0 0.00 0.00 0.00 48 1020.6
20260507174532 67 53 6.0 16.0 0.00 0.00 0.00 43 1020.7
20260507171535 66 289 2.0 7.0 0.00 0.00 0.00 41 1020.8
20260507170053 64 292 3.0 9.0 0.00 0.00 0.00 51 1020.8
20260507164606 62 258 4.0 11.0 0.00 0.00 0.00 57 1020.8
20260507163036 60 273 3.0 6.0 0.00 0.00 0.00 64 1021.0
20260507161534 59 292 3.0 7.0 0.00 0.00 0.00 67 1021.1
20260507154645 57 11 1.0 5.0 0.00 0.00 0.00 80 1021.4
20260507153033 55 158 0.0 2.0 0.00 0.00 0.00 83 1021.5
20260507151535 53 158 1.0 5.0 0.00 0.00 0.00 86 1021.5
20260507150051 52 125 1.0 5.0 0.00 0.00 0.00 91 1021.6
20260507144537 49 137 0.0 3.0 0.00 0.00 0.00 93 1021.5
20260507143031 47 119 1.0 5.0 0.00 0.00 0.00 94 1021.4
20260507141531 45 179 1.0 3.0 0.00 0.00 0.00 94 1021.3